| time (UTC) | temp F | wind direction | speed knots | gust knots | rain 1hr in | rain 24hr in | rain mn in | humidity % | barometer mb |
| 20260510154541 | 63 | 17 | 8.7 | 13.9 | 0.00 | 0.00 | 0.00 | 50 | 1017.7 |
| 20260510153018 | 63 | 360 | 4.3 | 8.7 | 0.00 | 0.00 | 0.00 | 58 | 1017.6 |
| 20260510151558 | 63 | 27 | 0.0 | 9.6 | 0.00 | 0.00 | 0.00 | 57 | 1017.7 |
| 20260510150043 | 63 | 33 | 4.3 | 11.3 | 0.00 | 0.00 | 0.00 | 60 | 1017.8 |
| 20260510144529 | 62 | 34 | 5.2 | 13.0 | 0.00 | 0.00 | 0.00 | 60 | 1018.3 |
| 20260510143007 | 62 | 23 | 6.1 | 11.3 | 0.00 | 0.00 | 0.00 | 62 | 1017.8 |
| 20260510141548 | 62 | 28 | 6.1 | 8.7 | 0.00 | 0.00 | 0.00 | 65 | 1017.6 |
| 20260510140029 | 61 | 31 | 5.2 | 13.0 | 0.00 | 0.00 | 0.00 | 67 | 1017.2 |
| 20260510134517 | 61 | 85 | 5.2 | 10.4 | 0.00 | 0.00 | 0.00 | 68 | 1016.9 |
| 20260510133057 | 60 | 34 | 0.0 | 2.6 | 0.00 | 0.00 | 0.00 | 72 | 1016.9 |
| 20260510131546 | 60 | 18 | 6.1 | 9.6 | 0.00 | 0.00 | 0.00 | 76 | 1016.8 |
| 20260510130021 | 59 | 28 | 5.2 | 10.4 | 0.00 | 0.00 | 0.00 | 78 | 1016.5 |
| 20260510124603 | 59 | 18 | 0.0 | 1.7 | 0.00 | 0.00 | 0.00 | 80 | 1016.2 |
| 20260510123043 | 59 | 34 | 0.0 | 9.6 | 0.00 | 0.00 | 0.00 | 80 | 1015.8 |
| 20260510121516 | 58 | 49 | 2.6 | 7.0 | 0.00 | 0.00 | 0.00 | 80 | 1015.8 |
| 20260510120055 | 57 | 18 | 2.6 | 6.1 | 0.00 | 0.01 | 0.00 | 82 | 1015.5 |
| 20260510114541 | 57 | 43 | 0.0 | 0.9 | 0.00 | 0.01 | 0.00 | 83 | 1015.3 |
| 20260510113018 | 57 | 37 | 0.0 | 0.9 | 0.00 | 0.01 | 0.00 | 82 | 1015.0 |
| 20260510111554 | 57 | 38 | 0.0 | 1.7 | 0.00 | 0.01 | 0.00 | 81 | 1014.8 |
| 20260510110030 | 58 | 39 | 0.0 | 2.6 | 0.00 | 0.01 | 0.00 | 81 | 1014.6 |
| 20260510104512 | 57 | 72 | 0.0 | 0.0 | 0.00 | 0.01 | 0.00 | 82 | 1014.3 |
| 20260510103052 | 57 | 1 | 0.0 | 0.0 | 0.00 | 0.01 | 0.00 | 82 | 1014.4 |
| 20260510101531 | 56 | 359 | 0.0 | 0.0 | 0.00 | 0.01 | 0.00 | 81 | 1014.2 |
| 20260510100009 | 56 | 1 | 0.0 | 0.0 | 0.00 | 0.01 | 0.00 | 80 | 1013.9 |
| 20260510094549 | 57 | 109 | 0.0 | 2.6 | 0.00 | 0.01 | 0.00 | 76 | 1013.6 |
| 20260510093028 | 58 | 101 | 0.0 | 0.9 | 0.00 | 0.01 | 0.00 | 75 | 1013.3 |
| 20260510091505 | 57 | 37 | 0.0 | 0.0 | 0.00 | 0.01 | 0.00 | 78 | 1013.1 |
| 20260510090047 | 56 | 89 | 0.0 | 0.0 | 0.00 | 0.01 | 0.00 | 81 | 1013.3 |
| 20260510084523 | 56 | 89 | 0.0 | 0.0 | 0.00 | 0.01 | 0.00 | 80 | 1013.0 |
| 20260510083005 | 57 | 89 | 0.0 | 0.0 | 0.00 | 0.01 | 0.00 | 79 | 1012.6 |
| 20260510081541 | 57 | 158 | 0.0 | 0.0 | 0.00 | 0.01 | 0.00 | 78 | 1012.7 |
| 20260510080022 | 57 | 158 | 0.0 | 0.0 | 0.00 | 0.01 | 0.00 | 79 | 1012.9 |
| 20260510074503 | 57 | 158 | 0.0 | 0.0 | 0.00 | 0.01 | 0.00 | 77 | 1012.8 |
| 20260510073042 | 58 | 158 | 0.0 | 0.0 | 0.00 | 0.01 | 0.00 | 74 | 1012.7 |
| 20260510071518 | 61 | 158 | 0.0 | 0.0 | 0.00 | 0.01 | 0.00 | 68 | 1012.7 |
| 20260510064557 | 61 | 158 | 0.0 | 0.0 | 0.00 | 0.01 | 0.00 | 67 | 1012.4 |
| 20260510063017 | 60 | 162 | 0.0 | 2.6 | 0.00 | 0.01 | 0.00 | 69 | 1012.6 |
| 20260510061555 | 63 | 72 | 0.0 | 0.0 | 0.00 | 0.01 | 0.00 | 63 | 1012.5 |
| 20260510060038 | 65 | 314 | 0.0 | 0.0 | 0.00 | 0.01 | 0.01 | 60 | 1012.5 |
| 20260510054518 | 65 | 251 | 0.0 | 0.0 | 0.00 | 0.01 | 0.01 | 59 | 1012.6 |
| 20260510053018 | 65 | 266 | 0.0 | 0.0 | 0.00 | 0.01 | 0.01 | 60 | 1012.6 |
| 20260510051549 | 65 | 284 | 0.0 | 0.0 | 0.00 | 0.01 | 0.01 | 59 | 1012.6 |
| 20260510050035 | 63 | 345 | 0.0 | 0.0 | 0.00 | 0.01 | 0.01 | 65 | 1012.5 |
| 20260510044502 | 66 | 196 | 0.0 | 3.5 | 0.00 | 0.01 | 0.01 | 55 | 1011.9 |
| 20260510043044 | 67 | 231 | 0.9 | 3.5 | 0.00 | 0.01 | 0.01 | 51 | 1011.6 |
| 20260510041520 | 68 | 231 | 0.0 | 3.5 | 0.00 | 0.01 | 0.01 | 49 | 1011.5 |
| 20260510040002 | 67 | 205 | 0.0 | 4.3 | 0.00 | 0.01 | 0.01 | 50 | 1011.2 |
| 20260510034531 | 69 | 168 | 0.0 | 3.5 | 0.00 | 0.01 | 0.01 | 50 | 1011.3 |
| 20260510033012 | 69 | 169 | 0.9 | 4.3 | 0.00 | 0.01 | 0.01 | 47 | 1011.2 |
| 20260510031555 | 69 | 192 | 0.0 | 4.3 | 0.00 | 0.01 | 0.01 | 47 | 1011.1 |
| 20260510030027 | 69 | 182 | 0.0 | 2.6 | 0.00 | 0.01 | 0.01 | 49 | 1011.2 |
| 20260510024512 | 68 | 191 | 0.0 | 0.0 | 0.00 | 0.01 | 0.01 | 54 | 1010.9 |
| 20260510023052 | 71 | 192 | 0.0 | 2.6 | 0.00 | 0.01 | 0.01 | 44 | 1010.5 |
| 20260510021539 | 71 | 172 | 0.0 | 2.6 | 0.00 | 0.01 | 0.01 | 46 | 1010.1 |
| 20260510020022 | 72 | 182 | 0.0 | 0.0 | 0.00 | 0.01 | 0.01 | 47 | 1010.0 |
| 20260510014504 | 73 | 204 | 0.0 | 0.0 | 0.00 | 0.01 | 0.01 | 48 | 1009.7 |
| 20260510013051 | 73 | 218 | 0.0 | 2.6 | 0.00 | 0.01 | 0.01 | 44 | 1009.4 |
| 20260510011523 | 74 | 186 | 0.0 | 0.0 | 0.00 | 0.01 | 0.01 | 41 | 1009.2 |
| 20260510010004 | 76 | 226 | 0.0 | 0.0 | 0.00 | 0.01 | 0.01 | 36 | 1009.1 |
| 20260510004543 | 77 | 226 | 0.0 | 0.0 | 0.00 | 0.01 | 0.01 | 36 | 1008.8 |
| 20260510003028 | 78 | 226 | 0.0 | 0.0 | 0.00 | 0.01 | 0.01 | 34 | 1008.9 |
| 20260510001507 | 78 | 226 | 0.0 | 0.0 | 0.00 | 0.01 | 0.01 | 34 | 1008.9 |
| 20260510000057 | 79 | 198 | 0.0 | 0.0 | 0.00 | 0.01 | 0.01 | 35 | 1008.9 |
| 20260509234538 | 79 | 217 | 0.0 | 0.0 | 0.00 | 0.01 | 0.01 | 33 | 1008.8 |
| 20260509233007 | 79 | 248 | 0.9 | 6.1 | 0.00 | 0.01 | 0.01 | 33 | 1008.8 |
| 20260509231553 | 79 | 212 | 0.0 | 2.6 | 0.00 | 0.01 | 0.01 | 32 | 1008.8 |
| 20260509230033 | 80 | 196 | 0.0 | 3.5 | 0.00 | 0.01 | 0.01 | 31 | 1008.8 |
| 20260509224513 | 81 | 290 | 0.0 | 0.0 | 0.00 | 0.01 | 0.01 | 34 | 1008.8 |
| 20260509223049 | 81 | 282 | 0.0 | 0.0 | 0.00 | 0.01 | 0.01 | 30 | 1008.9 |
| 20260509221537 | 81 | 214 | 0.0 | 5.2 | 0.00 | 0.01 | 0.01 | 32 | 1008.8 |
| 20260509220040 | 82 | 283 | 0.0 | 0.0 | 0.00 | 0.01 | 0.01 | 33 | 1008.8 |
| 20260509214506 | 81 | 16 | 0.0 | 0.0 | 0.00 | 0.01 | 0.01 | 31 | 1008.8 |
| 20260509213045 | 81 | 257 | 1.7 | 5.2 | 0.00 | 0.01 | 0.01 | 30 | 1008.8 |
| 20260509211519 | 80 | 233 | 2.6 | 9.6 | 0.00 | 0.01 | 0.01 | 36 | 1008.9 |
| 20260509210057 | 80 | 276 | 0.0 | 8.7 | 0.00 | 0.01 | 0.01 | 34 | 1009.1 |
| 20260509204535 | 80 | 219 | 0.0 | 0.0 | 0.00 | 0.01 | 0.01 | 31 | 1009.2 |
| 20260509203029 | 79 | 298 | 0.0 | 0.0 | 0.00 | 0.01 | 0.01 | 33 | 1009.4 |
| 20260509201553 | 81 | 288 | 0.0 | 3.5 | 0.00 | 0.01 | 0.01 | 32 | 1009.5 |
| 20260509201502 | 81 | 249 | 0.0 | 3.5 | 0.00 | 0.01 | 0.01 | 34 | 1009.5 |
| 20260509200044 | 80 | 253 | 3.5 | 7.8 | 0.00 | 0.01 | 0.01 | 32 | 1009.8 |
| 20260509194519 | 79 | 293 | 0.0 | 0.0 | 0.00 | 0.01 | 0.01 | 38 | 1009.9 |
| 20260509193051 | 79 | 224 | 0.0 | 0.0 | 0.00 | 0.01 | 0.01 | 35 | 1009.9 |
| 20260509191533 | 79 | 255 | 0.0 | 5.2 | 0.00 | 0.01 | 0.01 | 35 | 1009.9 |
| 20260509190014 | 80 | 234 | 0.9 | 6.1 | 0.00 | 0.01 | 0.01 | 33 | 1009.9 |
| 20260509184551 | 77 | 280 | 0.0 | 0.0 | 0.00 | 0.01 | 0.01 | 40 | 1010.0 |
| 20260509183036 | 77 | 302 | 0.0 | 2.6 | 0.00 | 0.01 | 0.01 | 39 | 1009.9 |
| 20260509181511 | 77 | 266 | 3.5 | 9.6 | 0.00 | 0.01 | 0.01 | 40 | 1010.1 |
| 20260509180052 | 77 | 300 | 5.2 | 10.4 | 0.00 | 0.01 | 0.01 | 37 | 1010.0 |
| 20260509174545 | 76 | 304 | 7.0 | 11.3 | 0.00 | 0.01 | 0.01 | 42 | 1010.1 |
| 20260509173018 | 76 | 286 | 2.6 | 7.0 | 0.00 | 0.01 | 0.01 | 41 | 1010.4 |
| 20260509171554 | 76 | 303 | 0.0 | 5.2 | 0.00 | 0.01 | 0.01 | 42 | 1010.4 |
| 20260509170032 | 75 | 252 | 2.6 | 8.7 | 0.00 | 0.01 | 0.01 | 41 | 1010.4 |
| 20260509164509 | 75 | 324 | 5.2 | 10.4 | 0.00 | 0.01 | 0.01 | 44 | 1010.5 |
| 20260509163049 | 74 | 264 | 3.5 | 5.2 | 0.00 | 0.01 | 0.01 | 48 | 1010.6 |
| 20260509161541 | 74 | 257 | 3.5 | 6.1 | 0.00 | 0.01 | 0.01 | 45 | 1010.6 |
| 20260509160007 | 73 | 307 | 0.0 | 0.0 | 0.00 | 0.01 | 0.01 | 53 | 1010.6 |